Wind_Speed
6 6 7 7 7 10 12 7 6 7 8 8 8 7 9 9 9 10 11 11 10 10 11 10 9 9 8 7 6 6 7 8 9 10 11 11 12 13 14 14 15 15 14 14 13 13 12 11 10
5 5 5 6 9 13 11 9 10 11 12 12 11 11 12 11 11 11 11 11 10 10 10 9 9 8 8 7 7 7 7 8 9 10 11 12 13 14 15 16 17 17 17 16 15 14 13 11 10
5 4 4 5 10 8 9 12 12 12 11 11 14 13 13 13 13 12 12 11 10 10 10 9 9 9 8 8 8 9 9 9 10 11 12 13 14 15 16 17 18 19 18 18 17 16 15 13 11
6 3 2 5 9 8 12 13 10 8 11 9 12 16 15 14 14 14 14 13 12 12 11 10 10 10 10 10 10 11 12 12 13 14 15 16 17 17 17 18 19 19 20 20 20 19 17 16 14
8 4 2 8 8 11 16 15 10 8 11 12 15 18 16 16 15 15 15 14 13 13 13 12 12 12 12 12 13 14 15 17 17 18 19 20 20 20 20 20 20 20 21 21 21 21 21 19 17
11 7 4 4 4 14 16 14 8 9 11 13 14 18 17 16 16 16 16 16 15 15 16 15 16 16 16 16 17 18 20 21 22 23 23 24 24 24 24 24 23 23 22 22 22 23 22 22 21
14 12 9 7 6 14 21 18 12 10 14 15 16 20 20 14 15 17 17 19 19 17 19 19 19 19 19 20 21 21 22 23 24 25 26 27 28 28 28 28 26 26 25 24 24 24 24 24 24
16 15 10 4 5 14 20 18 16 15 17 20 20 23 21 16 17 18 18 19 22 21 20 21 21 21 22 22 23 23 24 25 26 27 28 29 29 29 30 30 30 29 28 27 27 26 25 25 25
17 15 10 3 11 19 24 24 21 19 20 25 23 22 24 22 21 20 20 21 22 24 23 23 23 24 24 24 25 26 26 26 28 29 29 30 30 30 30 31 31 31 31 31 30 29 28 27 27
18 16 11 10 20 26 28 28 24 20 23 28 25 23 26 25 24 24 23 23 23 25 26 26 26 26 27 27 27 28 28 28 30 30 31 32 32 31 31 31 31 32 33 33 32 31 30 29 28
20 19 16 18 22 24 25 22 21 21 26 27 27 26 27 27 26 27 26 26 26 27 28 28 28 29 30 30 30 30 31 31 31 32 33 33 32 32 32 32 31 31 33 33 34 33 32 31 31
21 20 20 22 23 23 22 21 22 22 24 24 26 27 28 28 28 29 29 28 29 29 29 30 30 31 32 33 33 33 34 35 35 35 34 34 33 33 33 34 33 32 33 35 35 35 35 34 33
21 21 21 22 23 23 22 22 23 22 22 23 25 26 27 28 28 30 31 31 31 31 31 31 32 32 34 34 35 36 37 37 38 38 37 37 35 33 33 34 34 34 35 36 37 37 35 35 35
19 19 19 21 22 22 21 21 22 22 21 22 23 25 26 28 29 30 31 32 32 32 32 33 33 34 35 36 37 38 39 39 39 40 40 38 36 34 34 34 35 36 37 37 37 37 36 36 35
15 14 15 17 19 18 17 19 20 20 20 20 21 23 25 26 27 27 28 29 30 31 32 33 34 34 36 37 38 39 40 40 40 40 39 38 36 35 35 35 36 37 37 37 37 36 37 37 36
7 7 11 18 15 12 13 19 20 20 20 21 21 22 22 22 23 24 25 26 27 29 31 32 34 35 37 38 38 39 39 39 39 39 38 36 35 34 34 35 36 36 36 36 37 37 37 37 38
5 14 22 24 16 10 14 21 23 23 24 23 22 21 21 20 21 21 22 24 26 28 30 31 33 35 36 36 37 38 38 38 38 37 36 35 35 35 35 35 36 36 36 34 35 35 35 36 37
17 19 21 17 8 10 18 26 25 23 24 23 21 20 19 19 20 21 23 24 26 28 29 31 33 34 35 36 36 36 36 36 36 36 36 36 36 36 36 35 35 34 34 33 33 34 35 36 36
10 11 12 9 13 15 22 25 22 21 20 18 17 17 17 17 18 20 22 24 25 28 30 31 33 34 35 35 35 36 36 36 37 37 36 36 36 36 36 36 35 34 32 31 32 33 35 35 35
8 10 15 18 20 19 18 19 15 13 12 12 13 14 15 17 18 21 22 24 27 28 30 31 33 34 35 35 36 36 36 36 37 38 38 38 37 38 38 37 36 35 33 32 31 31 31 34 36
10 15 16 17 18 16 15 14 12 11 10 12 14 16 18 19 21 23 26 27 29 30 32 33 34 34 35 36 37 38 39 39 39 40 40 39 39 40 40 39 37 35 34 32 31 31 31 32 34
15 15 14 14 16 18 20 21 14 9 9 13 17 18 21 23 25 26 28 30 31 32 33 34 34 35 37 39 40 41 41 41 41 42 41 41 41 41 40 39 37 35 35 34 33 32 32 31 33
11 10 12 15 21 25 25 20 11 11 14 17 20 22 24 26 27 28 29 30 31 33 35 36 36 37 38 40 42 43 43 43 43 43 42 41 40 40 39 37 36 35 34 34 33 33 33 32 33
7 10 16 19 22 25 21 16 11 16 21 24 25 25 26 27 28 28 29 30 31 33 35 36 37 38 39 41 42 43 43 43 42 42 40 39 38 38 37 37 36 35 35 35 34 34 33 33 33
6 10 17 23 25 23 18 14 11 19 24 26 28 27 27 27 27 28 30 31 32 33 34 36 37 38 39 40 41 41 41 41 40 40 39 38 37 37 37 37 36 36 36 36 36 36 36 36 36
8 10 15 18 21 23 20 18 18 21 23 24 25 26 26 27 29 30 31 31 33 34 35 36 37 38 39 39 39 39 39 39 39 39 39 38 38 38 39 39 39 39 39 39 39 39 40 40 40
9 10 11 11 11 15 21 22 21 22 23 23 24 26 27 28 29 30 31 32 34 35 35 36 37 38 39 39 39 39 39 38 38 38 39 39 40 41 42 43 44 44 44 44 44 43 43 43 44
11 10 9 6 8 8 12 20 22 23 24 25 26 27 28 29 30 31 32 34 34 36 36 37 38 38 38 38 39 39 38 38 38 38 38 39 41 43 44 46 47 48 49 50 50 50 49 48 48
11 10 9 7 8 8 10 22 24 25 25 25 26 28 30 31 32 33 34 35 36 37 38 38 39 39 39 39 39 39 39 39 39 39 40 41 42 43 45 47 49 51 52 54 54 54 53 53 53
10 11 10 10 10 10 10 23 25 26 25 26 28 29 31 32 33 34 35 37 38 38 39 40 40 40 40 40 40 40 40 40 40 41 42 43 44 45 46 48 50 53 55 56 57 58 58 58 57
Wind_Direction
359 13 28 40 30 37 53 25 332 323 326 336 345 340 321 334 322 311 306 307 311 312 315 315 314 312 311 315 323 330 334 332 329 325 321 317 314 314 315 319 321 323 326 330 335 341 346 350 352
339 355 16 28 18 19 11 346 323 327 329 334 331 324 326 331 327 324 317 313 318 320 321 322 321 319 320 324 328 330 330 328 325 322 318 315 312 311 312 314 316 317 319 320 322 324 328 334 338
317 337 20 35 33 356 320 309 317 336 328 334 321 312 320 324 324 321 316 314 317 320 323 326 327 327 330 333 332 329 327 324 321 318 315 312 310 309 309 309 309 310 310 311 312 311 311 314 318
301 317 44 56 32 318 302 301 315 328 316 324 308 304 313 316 316 313 311 311 312 314 317 318 322 324 327 328 326 325 323 321 317 314 310 308 305 303 303 303 303 302 302 302 302 301 300 299 298
290 278 145 53 352 286 294 301 320 314 305 305 305 303 306 309 308 308 306 307 310 312 312 311 313 315 317 318 317 316 314 313 310 308 305 303 301 298 297 297 297 296 296 295 293 292 291 290 288
290 271 217 89 296 286 287 292 302 298 289 286 290 293 296 302 302 304 305 305 304 307 307 307 308 308 310 312 311 311 310 308 306 305 302 300 298 295 294 294 293 292 290 289 288 285 284 283 282
295 283 258 199 227 282 285 285 280 275 275 276 281 285 290 290 299 303 305 305 302 305 306 306 305 306 306 307 307 306 306 306 306 304 302 300 297 293 291 290 290 289 287 285 284 281 279 278 277
292 288 275 219 268 269 269 277 275 272 271 270 273 281 283 297 303 302 302 302 301 303 304 303 304 304 305 305 306 305 305 305 305 304 301 299 297 293 290 289 287 286 286 283 279 277 275 274 273
289 283 275 248 258 246 255 264 271 278 275 274 274 279 288 295 296 296 296 296 298 300 301 302 302 303 304 305 306 307 306 305 305 306 303 300 298 294 291 288 287 286 285 283 280 274 271 271 271
283 277 259 245 251 248 255 266 272 271 269 272 279 284 286 288 289 289 290 290 291 293 297 300 301 302 302 303 303 305 305 303 304 304 304 303 300 295 291 289 287 287 285 282 280 275 269 267 267
277 272 258 246 256 261 261 267 269 264 265 276 281 282 282 283 283 285 287 287 289 290 292 294 297 298 299 301 302 302 303 301 300 301 302 302 301 298 293 290 289 289 288 285 280 275 271 265 261
273 271 265 261 263 266 264 259 263 268 273 276 275 277 278 280 284 285 286 285 285 287 288 290 292 293 295 297 298 299 301 301 300 300 302 301 299 297 296 292 292 291 291 288 284 278 273 266 260
270 270 269 268 269 270 268 262 266 270 270 268 271 274 277 279 279 280 281 282 283 284 285 286 287 289 292 294 296 298 298 299 298 299 299 299 297 295 295 294 294 293 292 290 285 279 273 268 262
269 270 271 270 270 271 269 267 268 270 267 269 270 272 273 275 276 277 278 279 280 281 283 285 286 289 291 292 294 295 296 296 296 294 295 294 294 292 293 294 295 294 292 290 285 278 269 265 262
274 275 274 274 275 273 269 268 274 275 273 271 271 271 272 274 275 276 277 278 279 280 282 284 286 288 289 290 291 292 292 293 292 292 291 291 290 291 291 292 293 292 290 287 284 276 267 264 262
282 279 253 248 252 269 283 285 284 280 281 280 277 276 276 277 279 279 279 280 280 281 282 285 287 289 289 290 290 290 291 291 291 290 290 289 288 289 289 290 292 290 289 285 280 273 266 262 259
255 242 238 241 253 266 282 291 289 286 287 287 285 284 283 283 284 283 282 282 283 283 285 287 288 290 290 290 290 290 291 291 290 290 289 288 288 288 288 289 290 288 286 283 277 268 263 258 257
247 239 244 242 276 281 284 296 293 290 291 290 289 288 287 286 285 285 285 284 285 285 286 287 289 290 290 291 291 291 291 291 291 289 289 289 288 288 288 288 289 287 282 279 275 267 260 257 255
313 328 309 285 287 283 291 296 294 292 292 292 292 292 291 290 290 290 290 289 289 289 288 288 290 291 292 292 292 292 292 292 291 291 290 289 288 288 287 287 287 286 283 279 277 269 259 256 253
291 285 278 282 288 290 293 297 297 298 301 303 303 302 300 299 299 298 297 295 294 293 291 292 293 294 294 294 294 294 294 293 292 291 290 289 288 287 286 285 285 284 281 280 278 272 264 258 253
254 250 259 281 295 295 289 279 284 294 304 310 311 311 310 308 307 304 302 300 299 298 297 297 297 298 298 297 296 297 296 295 293 292 290 289 287 285 284 284 283 282 281 279 274 270 266 259 253
263 261 264 274 286 281 274 262 264 289 307 317 318 316 315 312 310 308 306 305 305 304 303 302 302 302 302 301 301 301 300 298 296 295 293 292 290 287 285 283 281 279 278 278 274 271 268 265 259
292 291 283 282 275 270 274 280 274 334 338 336 328 323 319 316 314 313 312 310 309 308 307 307 306 306 305 304 303 303 302 300 299 297 295 293 290 288 285 282 280 279 277 276 274 271 268 264 262
291 296 293 289 287 294 305 320 332 350 342 336 332 327 325 322 320 318 316 315 313 311 310 310 309 308 307 306 305 304 302 300 299 297 295 293 290 288 286 283 281 278 277 274 271 269 267 263 261
299 308 310 322 335 343 351 350 7 349 341 335 332 331 330 327 325 323 322 320 318 316 314 312 311 310 309 308 306 304 302 300 298 296 294 292 290 289 287 284 282 279 277 275 271 267 265 263 262
317 313 317 330 336 338 343 349 348 341 337 335 333 332 332 330 329 328 326 324 322 320 318 317 315 313 312 310 307 305 302 299 297 295 292 290 288 286 284 283 282 280 278 276 272 268 264 261 260
302 296 302 320 337 343 341 334 336 337 335 336 336 335 335 333 331 329 328 327 325 324 322 320 318 316 313 311 308 305 302 299 296 293 290 288 286 284 283 281 280 278 276 275 272 269 264 261 258
322 316 312 325 334 344 336 316 322 330 333 336 335 335 335 333 332 331 330 328 326 325 323 321 319 317 315 312 309 306 302 298 295 292 290 288 286 285 283 281 279 277 275 273 271 268 264 259 256
323 319 323 325 317 329 330 307 321 324 330 331 331 332 331 331 331 331 330 329 327 325 324 322 320 318 317 314 311 308 304 301 298 295 293 291 289 287 285 282 280 277 275 272 269 266 263 260 255
322 321 325 330 333 339 337 306 316 322 327 329 329 329 330 330 331 330 330 329 327 326 324 323 321 320 318 316 314 310 307 304 301 299 296 295 293 290 287 284 281 278 275 271 268 265 262 259 254
Height
5921 5922 5922 5923 5923 5920 5919 5921 5922 5921 5920 5919 5919 5917 5916 5917 5917 5918 5914 5913 5913 5912 5912 5911 5910 5910 5910 5909 5908 5908 5907 5907 5907 5906 5906 5905 5905 5904 5903 5903 5902 5902 5901 5900 5899 5898 5897 5896 5895
5922 5922 5924 5924 5923 5921 5921 5922 5921 5921 5920 5918 5917 5916 5915 5915 5915 5914 5913 5913 5913 5912 5911 5911 5910 5909 5909 5908 5908 5907 5907 5907 5906 5906 5905 5905 5904 5904 5903 5902 5901 5901 5900 5900 5899 5898 5897 5896 5896
5922 5922 5924 5924 5923 5924 5924 5922 5921 5921 5918 5918 5916 5914 5914 5914 5913 5912 5912 5912 5912 5911 5911 5910 5910 5909 5908 5908 5907 5907 5906 5906 5905 5905 5904 5904 5903 5903 5902 5901 5900 5899 5899 5898 5898 5897 5897 5896 5895
5921 5923 5923 5924 5923 5924 5923 5922 5921 5920 5917 5915 5914 5912 5912 5912 5912 5911 5910 5910 5910 5910 5909 5909 5908 5908 5907 5906 5906 5906 5905 5904 5904 5903 5903 5902 5901 5901 5900 5899 5898 5897 5897 5896 5896 5896 5895 5895 5895
5920 5922 5923 5922 5925 5924 5922 5920 5920 5920 5917 5915 5912 5910 5910 5909 5909 5908 5908 5908 5908 5908 5907 5907 5907 5906 5906 5905 5904 5904 5903 5902 5901 5901 5900 5899 5898 5897 5897 5896 5895 5895 5894 5894 5894 5893 5893 5893 5893
5919 5920 5921 5922 5927 5924 5922 5919 5920 5918 5916 5913 5911 5908 5908 5907 5907 5906 5905 5904 5905 5906 5905 5905 5904 5904 5903 5903 5902 5901 5900 5899 5898 5897 5896 5895 5894 5893 5892 5892 5891 5891 5891 5890 5890 5890 5890 5890 5890
5917 5917 5917 5919 5924 5924 5918 5917 5917 5915 5912 5912 5908 5904 5905 5903 5904 5904 5903 5902 5901 5902 5902 5901 5901 5901 5900 5899 5898 5897 5896 5895 5894 5892 5891 5890 5889 5888 5887 5886 5886 5886 5886 5886 5886 5886 5886 5887 5887
5913 5914 5914 5917 5922 5923 5916 5913 5912 5910 5908 5907 5906 5903 5902 5899 5902 5902 5901 5900 5898 5898 5899 5898 5898 5897 5896 5895 5894 5893 5891 5890 5889 5887 5886 5884 5883 5882 5881 5880 5880 5880 5880 5880 5880 5881 5881 5882 5883
5909 5911 5911 5914 5917 5916 5911 5909 5908 5907 5905 5902 5903 5901 5900 5900 5900 5899 5898 5897 5896 5894 5895 5894 5894 5893 5892 5891 5890 5888 5887 5885 5884 5882 5880 5879 5877 5876 5875 5874 5873 5873 5873 5873 5873 5874 5875 5876 5877
5905 5906 5907 5910 5909 5907 5905 5904 5904 5903 5900 5898 5898 5898 5898 5897 5897 5895 5895 5894 5893 5891 5890 5890 5889 5888 5887 5886 5885 5884 5882 5880 5878 5876 5875 5873 5871 5869 5869 5868 5867 5866 5865 5865 5866 5867 5868 5869 5871
5900 5901 5901 5901 5901 5900 5900 5899 5899 5898 5894 5895 5894 5894 5893 5892 5891 5890 5890 5889 5888 5888 5886 5886 5885 5884 5882 5881 5879 5878 5876 5875 5873 5871 5869 5867 5865 5863 5861 5860 5860 5859 5857 5857 5858 5859 5860 5862 5864
5895 5895 5895 5895 5895 5894 5894 5894 5892 5892 5891 5891 5890 5889 5888 5887 5887 5886 5885 5885 5883 5883 5882 5881 5881 5879 5877 5875 5874 5872 5870 5868 5866 5864 5862 5860 5859 5857 5854 5853 5852 5851 5850 5849 5849 5851 5852 5854 5856
5890 5890 5890 5890 5889 5889 5888 5888 5887 5887 5887 5886 5885 5884 5883 5882 5882 5880 5879 5878 5878 5877 5876 5876 5875 5873 5872 5870 5868 5866 5864 5862 5859 5856 5855 5853 5852 5850 5848 5846 5844 5843 5842 5841 5840 5841 5843 5845 5847
5885 5886 5886 5885 5884 5884 5883 5882 5882 5881 5881 5881 5880 5879 5878 5877 5876 5875 5874 5873 5872 5871 5870 5869 5868 5868 5866 5864 5862 5859 5857 5855 5852 5850 5847 5845 5844 5843 5842 5840 5837 5835 5833 5832 5832 5832 5834 5836 5839
5881 5882 5882 5881 5879 5879 5879 5878 5877 5876 5876 5876 5875 5874 5873 5872 5870 5869 5868 5867 5867 5866 5864 5863 5862 5861 5859 5857 5855 5852 5850 5847 5845 5842 5839 5837 5836 5835 5834 5832 5830 5828 5825 5823 5823 5824 5825 5827 5830
5878 5879 5880 5877 5875 5875 5877 5874 5873 5871 5871 5871 5870 5869 5868 5866 5865 5864 5863 5862 5861 5860 5859 5857 5856 5854 5852 5849 5847 5844 5841 5839 5836 5834 5831 5829 5828 5827 5826 5824 5821 5819 5817 5815 5815 5816 5817 5819 5821
5877 5875 5873 5871 5871 5869 5871 5870 5870 5868 5866 5865 5864 5863 5862 5861 5860 5859 5858 5857 5856 5854 5853 5851 5849 5847 5844 5841 5839 5836 5833 5831 5828 5825 5823 5822 5820 5819 5817 5816 5813 5810 5808 5807 5806 5806 5808 5810 5812
5870 5869 5868 5866 5867 5866 5867 5867 5865 5863 5862 5860 5859 5858 5857 5857 5856 5855 5853 5852 5851 5849 5847 5845 5842 5840 5837 5834 5831 5828 5825 5823 5820 5817 5815 5814 5812 5810 5809 5808 5805 5803 5801 5799 5798 5798 5799 5801 5804
5868 5868 5865 5864 5866 5867 5865 5864 5862 5859 5857 5856 5855 5854 5853 5852 5851 5850 5849 5847 5845 5843 5841 5838 5836 5833 5829 5826 5823 5821 5818 5815 5811 5809 5807 5805 5803 5802 5800 5799 5797 5795 5793 5792 5791 5791 5791 5793 5795
5872 5872 5868 5867 5867 5866 5863 5860 5857 5855 5854 5853 5852 5851 5850 5849 5848 5846 5844 5841 5839 5836 5834 5831 5828 5825 5821 5818 5815 5812 5810 5807 5803 5800 5798 5796 5794 5792 5790 5790 5788 5787 5786 5785 5784 5783 5783 5785 5787
5870 5869 5868 5867 5865 5863 5861 5857 5853 5852 5851 5851 5849 5848 5846 5845 5843 5841 5838 5835 5832 5829 5825 5823 5819 5816 5813 5809 5806 5803 5800 5797 5793 5791 5788 5786 5784 5782 5780 5780 5779 5778 5778 5777 5776 5776 5777 5778 5779
5866 5866 5866 5864 5862 5857 5853 5850 5847 5846 5846 5847 5847 5845 5843 5840 5838 5835 5831 5828 5825 5821 5817 5814 5811 5808 5804 5799 5796 5792 5789 5786 5783 5780 5777 5775 5773 5771 5770 5769 5769 5769 5768 5768 5769 5769 5769 5770 5771
5864 5864 5863 5860 5856 5851 5844 5841 5839 5841 5841 5842 5842 5840 5838 5835 5832 5828 5825 5822 5818 5814 5810 5806 5802 5799 5795 5791 5786 5782 5778 5774 5771 5768 5766 5764 5762 5760 5759 5758 5758 5759 5759 5759 5760 5760 5761 5762 5763
5864 5864 5861 5858 5855 5850 5844 5841 5839 5839 5840 5839 5838 5836 5833 5830 5827 5823 5820 5816 5812 5807 5803 5798 5794 5790 5786 5782 5777 5772 5768 5764 5761 5758 5755 5753 5751 5749 5748 5747 5748 5748 5749 5749 5751 5752 5753 5754 5755
5863 5863 5860 5855 5850 5847 5843 5839 5838 5840 5840 5838 5835 5832 5829 5826 5822 5818 5814 5810 5806 5801 5796 5791 5787 5782 5777 5773 5768 5763 5759 5755 5751 5748 5746 5743 5742 5740 5738 5737 5737 5737 5738 5739 5740 5742 5744 5745 5747
5862 5862 5860 5856 5854 5849 5843 5840 5841 5841 5840 5838 5834 5831 5827 5823 5818 5814 5809 5805 5800 5795 5789 5784 5779 5774 5769 5764 5759 5754 5750 5746 5742 5739 5736 5734 5732 5731 5729 5727 5726 5726 5726 5727 5729 5731 5733 5735 5737
5861 5860 5859 5858 5856 5853 5847 5844 5842 5841 5839 5836 5832 5829 5824 5820 5815 5810 5805 5799 5794 5788 5783 5778 5772 5767 5761 5756 5751 5746 5741 5737 5734 5730 5727 5725 5722 5720 5719 5717 5715 5714 5714 5715 5716 5717 5720 5723 5726
5859 5858 5856 5855 5855 5854 5852 5845 5843 5840 5837 5834 5830 5826 5822 5816 5811 5806 5800 5794 5788 5783 5777 5771 5765 5759 5754 5748 5742 5737 5732 5728 5724 5721 5718 5715 5712 5709 5707 5704 5703 5701 5700 5700 5701 5702 5705 5709 5712
5858 5857 5855 5854 5852 5852 5851 5846 5842 5838 5835 5832 5828 5823 5818 5813 5807 5801 5795 5789 5782 5776 5770 5764 5757 5751 5745 5739 5733 5727 5722 5718 5713 5710 5706 5703 5700 5697 5694 5691 5688 5686 5685 5684 5684 5685 5687 5691 5696
5857 5855 5854 5853 5851 5850 5850 5846 5840 5836 5832 5829 5825 5820 5814 5808 5802 5796 5789 5783 5776 5769 5762 5755 5749 5742 5736 5729 5723 5717 5712 5707 5702 5698 5694 5690 5686 5683 5679 5675 5672 5669 5667 5665 5665 5665 5668 5671 5676